Location: NCO
(38.4404°N, 77.1340°W)
Time: 12:07:03
(UTC-04:00)

N. Korean satellite - Visible Passes

Search period start: 24 March 2017 00:00
Search period end: 03 April 2017 00:00
Orbit: 461 x 520 km, 97.2° (Epoch: 22 March)

Date Brightness Start Highest point End Pass type
(mag) Time Alt. Az. Time Alt. Az. Time Alt. Az.
25 Mar 10.1 20:38:57 10° WSW 20:40:11 11° W 20:41:25 10° WNW visible
26 Mar 9.4 20:14:40 10° SSW 20:17:30 22° W 20:20:20 10° NW visible
27 Mar 8.0 19:51:28 10° S 19:54:53 43° W 19:58:17 10° NNW visible
30 Mar 9.6 20:18:13 10° SW 20:20:51 19° W 20:23:27 10° NW visible
31 Mar 8.2 19:54:52 10° SSW 19:58:11 38° W 20:01:29 10° NNW visible
